Showing default

ICEYE-X43, 60539

Orbit data source: Space-Track

ICEYE-X43, 60539 is a Brazilian payload satellite in SSO that was launched on Fri, 16 Aug 2024 UTC via an FALCON 9 launch vehicle from the Air Force Western Test Range (AFWTR). Payload-class satellites include a variety of spacecraft equipped with specific instruments for various scientific and technological missions. These include communications satellites like Starlink; space stations such as the ISS; scientific satellites like the Hubble; Earth observation satellites from companies like Planet Labs, Umbra, and HawkEye 360; GPS; miniature CubeSats for education and research; and military/defense satellites.

Loading next visibility...
Identifier
60539, 2024-149BZ
Orbit
SSO
Country
Flag of UnknownUnknown / BRAZ
Related business
Manufacturer
ICEYE
Mission
Operational Commercial Radar Imaging
Bus & Motor
ICEYE, Unknown motor
Mass
80 kg wet, 80 kg dry
Launch date (UTC)
2024-08-16 (1 year ago)
Launch vehicle
FALCON 9
Launch site
Air Force Western Test Range (AFWTR)
Object type
Payload
Rocket body
Debris
Shape & HBR
Box + 1 Pan, 0.8 m
Radar Cross Section
0.776 m², Medium (>0.1 m² and < 1m²)

Expand to show TLE details & history
Last TLE update: 1 day ago

TLE from 1 day ago
0 ICEYE-X43
1 60539U 24149BZ  25338.48119022  .00009274  00000-0  78044-3 0  9999
2 60539  97.6988  53.0434 0002742  19.4477 340.6850 14.98458952 70949
Epoch: 2025-12-04T11:32Z
TLE epoch observation values (Epoch: 2025-12-04T11:32:54.835Z)
Latitude
0.00003°
Longitude
166.2779°
Altitude
572.911 km
Speed
7.575 km/s
True Right ascension
03h 32m 10s
True Declination
0° 00' 00"
Sunlit
Object was in full shadow at epoch
Visualization orbit readout
Latitude
Unknown
Longitude
Unknown
Altitude
Unknown
Speed
Unknown
Apparent Right ascension
Unknown
Apparent Declination
Unknown
Sunlit
N/A
Visualization observer readout
Local Sidereal Time
13:11:37
Azimuth
Unknown
Elevation
Unknown
Doppler factor
Unknown
Orbital elements
Apogee altitude
570.569 km
Perigee altitude
566.76 km
Semi-major axis
6,946.801 km
Eccentricity
0.00027
Inclination
97.6988°
RAAN
53.0434°
Arg. of periapsis
19.4477°
True anomaly
340.6746°
Mean anomaly
340.685°
Eccentric anomaly
340.6798°
Mean motion
3.74857 °/min
Orbital period
96.04 mins
BSTAR
0.00078044
Loading maneuver chart data...
Computing Atmospheric mass density...
Loading historical data...
Loading historical data...
Loading historical data...
Loading historical data...
Loading historical data...
Loading historical data...
Loading historical data...

Documentation

Showing up to 5 results
|